Location: Beau Repaire
(50.6144°N, 4.0551°E)
Time: 11:39:01
(UTC+00:00)

Cosmos 2279 Rocket - Pass Details

Date: 15 May 2026
Orbit: 963 x 978 km, 82.9° (Epoch: 6 June)

Event Time Altitude Azimuth Distance (km) Brightness Sun altitude
Exits shadow 22:16:39 29° 154° (SSE) 1,714 4.7 -18.0°
Maximum altitude 22:19:42 54° 92° (E) 1,182 4.3 -18.1°
Drops below altitude 10° 22:25:46 10° 17° (NNE) 2,739 7.1 -18.4°
Sets 22:28:21 0° 13° (NNE) 3,690 8.0 -18.6°
